Dewpoint
60 60 60 60 61 61 61 62 62 62 63 63 63 63 63 63 63 62 62 62 62 62 62 61 61 61 60 60 60 60 59 46 46 45 40 40 57 62 65 62 64 63 60 27 30 20 22 18 22 22 24 24 28 26 30 40 40 36 29 23 21 21 20 24 19 18 22 17 17 16 17 17 15 16 17 17 16 19 20 20 20 20 20 22 30 45 45 47
59 59 60 60 61 61 61 61 62 62 62 63 62 63 63 63 63 63 62 62 62 61 61 61 61 61 60 60 60 59 53 46 44 45 41 54 64 64 64 60 64 62 50 18 30 28 21 18 24 22 22 17 35 29 37 35 36 30 27 21 21 24 23 25 21 20 18 18 18 17 18 16 15 16 17 16 16 16 15 15 19 19 19 20 24 45 46 47
60 60 60 60 60 60 61 61 61 62 62 63 63 63 63 62 62 62 62 62 61 61 61 61 61 61 60 60 60 59 50 43 38 31 37 58 63 65 63 64 62 60 25 20 33 31 26 30 26 19 25 17 25 28 34 31 35 33 24 24 24 28 22 25 22 19 18 18 17 17 17 17 16 16 20 17 15 16 15 16 17 17 16 16 19 44 45 47
60 60 60 60 60 60 61 61 61 62 62 62 63 63 62 61 61 62 62 62 62 61 61 61 61 61 60 60 59 54 44 35 32 34 38 61 63 63 62 63 62 55 39 40 38 37 28 24 22 19 25 19 25 34 26 30 29 30 24 23 23 25 20 19 24 22 21 19 18 17 18 15 16 16 18 16 16 16 17 17 17 16 16 16 22 41 45 46
60 60 60 60 60 60 60 61 61 61 62 62 63 62 62 61 61 61 62 62 62 61 61 61 61 60 59 59 59 51 38 26 26 38 39 62 64 61 61 61 60 46 41 42 31 27 24 23 26 27 22 17 27 24 27 28 30 28 23 23 23 22 20 19 18 19 19 19 17 16 16 16 18 18 17 17 15 16 17 19 17 17 16 16 21 39 44 46
60 60 59 60 60 60 60 60 61 61 62 62 62 62 62 62 62 61 61 61 61 61 61 60 60 60 60 59 51 43 33 19 30 35 57 63 60 58 61 59 59 41 34 28 24 24 22 22 28 27 23 22 23 22 22 25 27 21 21 20 20 21 19 18 18 19 19 17 17 17 18 17 17 16 17 17 16 17 18 18 18 17 17 17 20 40 44 45
60 59 59 59 59 60 60 60 61 61 62 62 62 62 62 62 61 61 61 61 61 61 61 60 60 60 60 58 47 38 33 34 38 42 55 61 59 58 57 55 50 36 27 24 25 19 25 23 27 27 25 26 26 20 20 24 27 22 19 19 19 19 18 18 18 19 19 19 17 17 19 17 16 16 17 17 17 17 18 18 18 18 17 17 25 38 39 44
60 59 59 59 59 59 59 60 60 61 62 62 62 62 61 62 61 61 61 61 61 61 60 60 60 60 58 43 39 36 34 32 33 45 55 58 48 44 47 43 33 33 28 27 25 22 23 24 25 27 26 24 26 21 23 20 21 20 19 20 19 20 19 20 19 18 17 17 18 19 18 17 17 16 17 16 17 18 18 18 18 17 17 18 21 25 36 41
59 59 59 58 58 58 58 59 60 61 61 62 62 62 62 62 61 61 61 61 61 61 60 60 60 60 58 40 37 33 33 37 39 41 49 43 39 34 36 31 34 28 26 31 30 25 25 24 27 29 25 26 24 23 22 18 18 21 18 21 19 17 17 17 17 17 17 16 17 18 16 17 17 23 17 17 18 18 19 18 18 18 19 18 16 21 31 37
59 59 59 58 58 58 58 59 60 61 61 61 61 61 62 62 61 60 61 61 61 60 60 60 59 58 42 39 37 29 35 35 34 43 41 37 36 37 36 36 36 31 24 27 30 25 26 27 28 32 30 26 24 20 23 21 18 21 20 18 17 17 17 18 17 17 18 18 18 17 17 17 18 18 17 18 18 18 17 19 21 18 17 17 17 18 26 34
59 59 59 59 58 59 59 59 60 61 61 61 61 61 62 61 60 60 61 61 61 60 59 59 58 52 40 38 33 30 39 34 33 36 40 37 36 38 37 36 35 33 28 29 30 33 32 31 33 34 30 24 26 25 20 20 19 19 18 17 17 17 18 18 18 18 18 18 19 18 17 17 19 19 17 18 19 18 17 17 18 19 18 17 17 16 21 27
59 59 59 58 58 58 59 59 59 60 60 61 60 60 60 60 60 60 60 60 60 60 59 59 56 43 38 36 33 33 34 32 33 35 34 38 35 41 40 37 35 35 28 26 32 38 40 36 32 26 28 27 23 23 22 21 19 18 18 16 17 19 18 19 19 20 19 18 18 19 17 17 17 15 17 18 18 18 18 17 17 19 18 18 18 17 17 18
58 58 58 58 58 58 58 59 59 59 60 60 60 60 60 60 60 60 60 60 60 59 60 58 56 48 39 31 33 40 39 37 35 39 38 42 39 41 42 41 38 34 34 29 31 39 42 36 27 24 28 26 22 22 25 22 18 18 18 17 16 19 18 19 22 17 18 17 19 19 16 16 17 17 17 17 18 18 17 17 17 18 18 17 17 17 18 18
57 57 57 57 57 58 58 59 59 59 60 60 61 60 59 59 60 60 60 60 61 60 60 55 46 41 35 33 37 37 35 42 35 29 36 40 29 36 38 42 41 38 38 31 35 38 40 36 31 26 29 23 21 27 20 19 22 17 17 18 18 19 18 20 23 21 20 21 18 19 18 17 17 18 18 19 18 17 17 17 17 19 20 18 18 19 19 18
57 57 57 57 57 57 58 58 59 59 59 60 60 60 59 59 59 60 59 60 59 60 59 55 46 37 34 33 36 35 54 33 27 32 38 33 34 35 35 35 38 36 36 38 40 41 38 34 27 20 18 22 25 19 17 21 23 27 17 20 23 19 19 21 24 21 21 21 18 18 19 18 18 19 21 20 19 19 17 17 17 17 18 18 19 17 17 18
57 56 56 57 57 57 57 58 58 59 59 59 59 59 58 58 59 59 58 61 58 59 51 48 47 36 30 27 33 45 38 37 36 39 41 38 37 33 36 35 37 34 33 33 35 32 30 30 24 21 24 22 19 21 20 22 24 23 19 21 21 22 21 21 22 21 20 17 17 17 18 18 18 20 20 18 22 20 18 18 19 18 17 17 17 17 18 18
56 56 56 56 57 57 57 57 58 58 59 59 59 58 58 58 58 58 58 56 54 52 49 43 43 38 28 35 38 36 37 39 40 39 38 38 38 36 28 32 32 30 30 28 32 28 28 21 26 24 27 21 20 26 21 20 19 21 23 20 22 20 20 19 21 23 23 18 18 17 16 18 19 20 21 21 21 19 18 18 19 19 18 18 19 19 19 19
56 56 56 57 57 57 56 57 57 58 59 58 58 57 57 57 58 55 52 50 48 47 47 47 41 29 28 32 31 33 38 38 41 41 40 38 32 30 28 28 31 28 27 25 29 24 28 24 28 22 27 26 19 22 19 18 20 20 20 20 19 20 21 20 21 21 22 22 18 17 17 19 20 21 22 22 22 19 19 20 21 21 20 21 20 20 19 19
56 56 56 57 57 57 56 57 58 59 59 58 59 58 59 57 48 45 42 40 24 25 24 24 31 27 23 26 35 38 40 41 40 36 35 38 38 32 32 33 33 24 25 22 22 25 29 29 29 25 20 21 20 20 19 22 22 20 20 20 20 20 20 19 20 22 22 21 21 21 21 21 21 21 21 22 22 20 21 22 21 20 19 19 20 20 20 21
55 55 56 55 56 56 56 57 58 59 59 54 51 49 46 32 37 22 34 38 31 24 27 32 36 36 38 38 38 40 42 38 34 35 37 35 34 27 25 27 33 28 24 24 27 27 28 23 22 21 21 20 21 22 21 21 21 20 22 22 20 21 21 22 22 22 23 22 21 21 22 21 21 21 21 22 23 23 23 23 23 23 22 22 22 23 23 23
55 55 56 55 55 55 56 57 58 59 58 51 49 46 40 40 29 22 40 41 42 41 40 39 40 39 36 39 42 39 33 32 33 35 36 35 29 26 23 22 23 23 24 26 25 27 28 24 24 25 23 22 22 23 24 23 22 22 23 22 21 24 21 22 22 22 23 22 21 22 21 21 21 21 22 23 23 23 23 23 24 24 24 25 25 25 25 25
54 54 55 54 54 54 55 57 58 57 55 50 49 48 45 44 42 40 41 35 38 41 40 42 42 39 41 41 41 38 33 29 26 32 36 32 25 23 23 22 22 21 24 26 26 24 23 21 22 23 24 25 25 24 24 23 24 23 22 22 22 22 23 22 22 23 23 24 21 21 21 21 22 22 23 24 24 24 24 25 25 25 26 26 27 27 27 27
54 54 53 54 53 53 54 57 58 55 49 50 48 46 46 46 42 43 42 38 40 41 40 39 38 38 38 39 34 35 25 26 24 30 31 28 24 24 25 21 21 21 25 20 23 22 23 24 24 24 26 23 22 23 23 23 24 22 22 20 21 23 22 21 22 23 22 22 22 23 22 23 23 24 24 25 25 25 27 27 28 29 27 27 26 26 27 27
54 53 54 54 53 53 55 57 56 53 49 50 50 49 47 42 42 43 41 36 32 33 37 40 39 38 38 32 34 28 27 27 26 27 29 26 23 25 23 21 20 20 21 18 19 20 21 22 21 23 23 22 23 24 23 22 22 24 24 23 22 23 23 23 22 23 25 25 26 24 24 23 24 24 24 25 25 25 25 25 25 27 32 31 32 31 31 29
53 53 53 53 51 53 56 56 50 49 49 48 47 49 46 41 41 42 39 30 25 31 40 39 40 40 39 39 39 28 27 28 28 28 28 25 24 24 23 22 19 19 21 21 21 22 20 21 24 24 25 25 24 22 24 24 22 24 25 25 24 25 24 24 25 25 24 23 25 25 21 22 24 24 24 25 25 25 25 25 25 26 26 28 27 27 28 31
53 53 52 52 52 54 57 44 44 50 48 48 50 50 46 44 41 39 33 23 18 23 30 34 41 33 38 27 34 31 28 25 29 31 36 33 29 24 23 23 21 23 22 22 21 22 21 22 25 24 24 24 24 23 25 24 23 23 23 26 26 26 25 25 25 24 22 22 22 25 21 20 23 23 23 24 24 24 25 26 26 26 25 25 27 28 28 28
51 51 51 52 52 56 36 33 46 47 44 48 49 48 45 44 42 42 27 18 14 26 26 33 33 31 32 30 30 31 14 25 28 24 23 30 24 25 23 23 23 22 20 22 25 23 26 24 25 26 24 23 23 22 24 26 24 22 26 25 26 26 25 25 25 25 24 25 26 26 25 22 22 23 24 24 24 24 25 25 25 25 24 24 26 28 28 28
51 51 51 52 52 56 51 51 49 48 49 51 49 46 45 45 43 40 20 14 10 30 29 26 33 35 35 35 31 23 14 23 16 24 22 23 25 22 22 22 21 22 22 22 19 25 25 25 24 24 23 22 22 24 25 27 24 24 26 26 26 26 26 26 25 24 24 23 23 23 24 20 22 22 24 25 24 24 23 23 23 23 25 28 28 28 27 27
50 50 51 52 52 56 55 53 49 48 51 50 49 46 46 46 41 20 16 14 19 17 33 27 35 35 34 30 27 28 27 26 20 23 27 24 26 23 21 22 21 20 19 20 19 22 24 24 24 24 22 21 23 23 24 26 24 27 27 26 27 26 25 26 24 24 24 21 20 19 21 19 18 21 21 24 23 23 23 22 22 25 29 29 29 27 26 25
50 50 51 52 51 51 50 49 48 49 50 48 47 47 48 46 25 20 21 9 23 15 30 32 34 31 32 25 22 23 19 20 26 27 24 20 21 24 22 22 20 20 22 24 22 23 22 28 28 22 21 23 24 26 25 25 27 27 26 25 25 25 25 25 25 23 16 20 21 22 23 22 19 20 19 21 21 21 21 22 26 31 30 31 29 26 24 22
50 50 51 51 46 50 49 37 49 49 48 47 47 48 44 25 21 14 7 20 20 22 31 32 31 32 29 26 20 24 23 26 26 21 15 22 24 27 27 22 28 24 24 24 25 26 27 27 26 27 30 28 28 28 26 26 26 25 23 23 23 21 22 20 20 19 16 17 20 22 23 23 19 16 21 23 23 21 20 25 29 31 31 31 24 21 16 13
50 51 52 49 46 48 38 36 46 51 51 49 47 39 -4 1 20 19 20 24 19 23 25 27 31 29 28 28 26 23 23 25 26 24 21 22 24 22 25 22 24 20 22 21 22 25 25 24 27 27 31 30 28 25 24 26 26 26 25 23 21 20 17 9 13 12 16 15 14 13 19 16 19 18 18 16 17 21 28 28 30 32 32 25 20 13 8 7
49 51 52 48 49 48 50 50 50 51 52 50 41 11 14 15 14 20 18 22 16 24 21 31 29 30 28 23 19 25 26 24 23 20 25 25 22 23 26 25 26 23 21 24 22 24 25 26 27 26 27 29 27 23 23 23 25 27 26 23 20 19 17 16 16 16 14 14 13 13 17 15 15 16 19 19 24 26 28 27 31 31 26 16 9 4 3 8
51 52 48 47 48 49 52 52 52 52 53 45 31 5 13 10 14 33 14 22 19 30 32 30 30 27 24 17 21 25 19 25 20 18 24 19 24 22 25 26 30 28 24 23 20 22 15 11 24 24 22 28 27 25 25 25 26 25 26 25 22 18 17 13 14 14 15 17 20 21 18 15 15 14 19 21 26 21 22 23 25 22 8 -1 -0 2 6 9
51 49 46 47 49 50 51 52 51 51 50 37 15 11 10 14 14 9 15 23 25 30 30 30 26 23 23 24 25 24 17 17 24 21 22 21 19 23 23 25 30 28 27 19 21 21 20 18 20 26 26 27 26 27 27 26 23 26 26 25 18 16 23 18 21 20 17 16 16 18 17 17 16 18 23 19 11 6 11 14 15 6 -4 -1 3 8 11 15
48 46 49 50 51 49 50 51 51 52 42 22 20 6 -1 13 18 17 13 27 31 27 29 25 24 22 21 23 24 22 24 16 15 21 20 24 24 23 24 27 27 29 27 21 24 21 22 19 25 29 28 26 26 26 26 26 17 21 22 19 19 24 22 19 19 21 21 19 14 15 8 12 14 14 14 11 2 -3 -0 5 2 -6 -2 5 9 13 18 22
44 45 46 48 48 49 51 51 52 49 33 25 11 5 12 16 12 23 36 29 30 30 26 16 20 18 20 21 22 23 21 18 17 21 18 23 22 25 27 28 27 26 27 27 24 26 24 25 27 24 22 26 27 24 22 22 23 25 18 22 23 23 25 20 12 11 9 7 9 15 13 9 7 8 18 2 -4 -6 1 1 -5 0 6 8 13 20 23 22
44 47 49 49 48 49 51 50 51 46 39 21 9 33 25 10 22 22 30 30 30 28 27 23 25 23 22 21 20 21 20 12 12 22 21 24 20 27 26 26 27 24 24 27 23 25 30 22 19 22 24 26 23 19 18 24 27 22 21 25 11 11 6 9 10 6 6 7 8 9 10 11 12 14 7 -2 -3 -1 3 -0 0 5 9 12 20 22 22 22
44 43 40 45 50 52 52 50 46 42 31 19 22 13 25 22 30 31 32 32 30 28 26 26 24 25 23 21 21 20 19 12 19 21 14 18 14 23 23 24 22 22 24 28 25 27 28 22 19 22 21 21 13 18 15 20 21 20 18 10 11 13 12 8 8 12 13 11 11 8 8 5 16 9 1 -0 -1 7 2 4 7 10 13 22 22 22 22 22
42 33 33 49 51 51 50 48 43 39 29 20 24 18 27 29 33 36 35 33 31 26 25 25 25 23 23 23 19 18 21 20 21 22 19 22 24 23 20 22 21 22 23 27 23 27 20 27 17 14 19 14 3 18 17 16 12 7 4 4 7 7 12 13 10 7 3 1 -1 -2 -4 -0 3 2 3 5 9 6 6 9 12 16 23 23 23 23 22 21
40 28 29 48 50 51 49 45 39 29 25 29 30 30 33 32 36 37 36 33 31 31 27 26 25 24 23 22 20 21 21 23 23 19 23 23 21 17 22 22 22 21 23 24 21 22 12 20 16 13 11 6 5 20 18 12 10 8 8 7 12 11 4 0 -1 2 2 0 -1 -0 -0 5 7 8 7 9 6 7 9 14 15 23 24 23 23 22 21 21
27 10 28 48 50 49 43 33 32 35 32 29 24 35 35 41 35 34 32 32 31 29 31 27 27 25 24 24 23 24 23 22 21 20 21 20 21 22 22 23 22 22 19 15 20 22 21 20 18 13 9 10 14 14 12 12 15 14 13 10 11 3 3 3 1 3 6 6 7 7 5 4 8 10 7 8 8 10 16 16 20 24 24 22 23 22 21 20
24 15 46 47 47 47 40 30 34 37 35 36 37 36 37 35 34 34 30 31 29 30 29 29 27 24 26 26 23 22 21 20 22 21 21 22 23 23 21 21 21 20 23 21 20 21 24 12 7 15 12 8 6 9 12 16 13 4 5 7 5 5 7 7 8 7 7 7 6 6 4 5 9 10 9 9 12 18 18 16 24 24 22 23 22 21 20 19
42 41 43 49 45 41 29 21 20 31 33 36 36 36 34 35 33 32 29 29 27 25 29 27 25 22 23 25 21 20 20 11 19 21 20 23 23 22 21 19 18 18 16 18 13 20 10 14 11 7 -0 -9 -10 -3 -1 4 7 5 6 8 11 11 11 11 12 12 7 6 6 5 2 5 10 11 11 15 17 15 13 14 24 23 22 23 21 20 19 17
37 39 42 40 42 39 30 27 21 30 32 34 30 30 29 28 30 27 27 26 28 26 25 23 25 26 24 25 23 22 22 18 15 22 22 22 22 24 21 20 19 18 21 24 28 26 15 16 9 1 -4 -9 -11 -11 -6 2 7 9 9 10 11 12 10 10 7 8 7 8 8 7 6 8 9 12 15 16 14 10 6 14 21 22 23 21 20 19 17 15
30 23 36 31 39 37 36 35 34 33 31 29 26 29 29 26 27 31 30 25 24 26 23 26 27 25 24 22 19 20 19 22 21 21 20 19 21 20 22 20 20 20 26 26 28 22 11 17 14 11 7 3 3 4 9 13 10 9 10 11 11 12 12 12 11 10 8 9 8 9 10 10 13 14 12 10 7 3 6 15 19 21 21 21 19 17 15 14
32 23 30 25 37 34 32 34 33 31 28 29 21 27 25 27 27 25 29 22 25 25 27 26 24 22 21 21 20 20 21 20 21 17 17 18 20 20 21 20 20 23 27 28 27 18 14 14 12 13 12 10 10 10 11 15 11 12 11 11 12 11 12 11 9 8 9 9 5 9 12 14 10 7 4 3 3 5 11 15 18 19 20 20 18 14 20 12
21 27 35 35 28 27 30 29 33 32 32 27 26 29 26 26 27 22 28 26 27 25 17 21 22 23 22 20 20 13 19 17 16 13 18 20 19 20 16 20 18 23 25 20 25 17 16 11 10 13 11 12 13 13 14 14 13 12 12 12 11 11 11 9 9 9 9 8 7 11 10 6 1 -0 0 2 4 10 13 13 15 19 21 19 15 11 10 11
27 30 34 35 23 31 31 32 33 32 30 29 31 31 28 27 27 27 26 24 24 20 18 8 21 21 21 22 19 17 19 7 8 17 15 16 18 18 15 16 19 21 19 16 16 17 15 12 13 13 13 13 13 14 14 13 12 12 12 11 10 10 9 8 8 9 10 8 6 2 -0 0 1 1 2 5 10 10 8 8 12 17 19 18 12 9 9 10
27 21 24 33 33 32 32 33 33 32 29 33 26 29 30 29 27 27 25 24 20 23 24 18 22 21 21 21 20 13 17 17 15 15 20 18 14 17 17 17 14 17 18 16 18 18 15 9 19 14 13 12 13 14 14 13 11 10 10 9 9 9 9 10 9 3 1 -1 -0 -0 0 1 2 4 7 7 7 8 8 8 8 13 16 15 11 9 9 10
35 38 34 31 28 30 30 30 31 30 27 30 27 29 31 31 29 28 26 27 23 22 23 20 22 22 23 20 20 18 18 19 20 20 20 19 14 18 16 13 18 16 17 16 16 16 17 12 16 15 12 11 12 11 11 12 11 9 8 8 7 6 5 3 2 0 0 1 -0 1 3 2 2 2 4 5 7 8 8 8 9 12 15 13 10 9 9 11
37 37 36 33 26 35 29 28 27 30 27 29 29 29 27 28 29 25 22 27 24 26 24 23 22 17 19 18 16 18 21 22 22 22 21 21 21 20 20 19 18 17 15 16 18 18 16 14 10 10 9 11 10 11 11 10 10 8 8 6 6 5 2 1 2 3 2 1 3 1 0 1 1 4 4 6 8 9 8 6 12 15 14 11 9 10 11 12